Year,Month,Day,Hour,Minute,Value (Times are PST for temperature in C)
2016,07,09,00,00,15.90
2016,07,09,00,01,16.00
2016,07,09,00,02,16.00
2016,07,09,00,03,16.00
2016,07,09,00,04,16.00
2016,07,09,00,05,16.00
2016,07,09,00,06,16.00
2016,07,09,00,07,16.10
2016,07,09,00,08,16.10
2016,07,09,00,09,16.10
2016,07,09,00,10,16.10
2016,07,09,00,11,16.10
2016,07,09,00,12,16.10
2016,07,09,00,13,16.10
2016,07,09,00,14,16.10
2016,07,09,00,15,16.20
2016,07,09,00,16,16.20
2016,07,09,00,17,16.10
2016,07,09,00,18,16.20
2016,07,09,00,19,16.20
2016,07,09,00,20,16.20
2016,07,09,00,21,16.20
2016,07,09,00,22,16.20
2016,07,09,00,23,16.30
2016,07,09,00,24,16.30
2016,07,09,00,25,16.30
2016,07,09,00,26,16.40
2016,07,09,00,27,16.40
2016,07,09,00,28,16.40
2016,07,09,00,29,16.40
2016,07,09,00,30,16.40
2016,07,09,00,31,16.40
2016,07,09,00,32,16.40
2016,07,09,00,33,16.40
2016,07,09,00,34,16.40
2016,07,09,00,35,16.40
2016,07,09,00,36,16.40
2016,07,09,00,37,16.40
2016,07,09,00,38,16.40
2016,07,09,00,39,16.40
2016,07,09,00,40,16.40
2016,07,09,00,41,16.40
2016,07,09,00,42,16.50
2016,07,09,00,43,16.50
2016,07,09,00,44,16.50
2016,07,09,00,45,16.50
2016,07,09,00,46,16.50
2016,07,09,00,47,16.50
2016,07,09,00,48,16.50
2016,07,09,00,49,16.40
2016,07,09,00,50,16.40
2016,07,09,00,51,16.40
2016,07,09,00,52,16.40
2016,07,09,00,53,16.40
2016,07,09,00,54,16.40
2016,07,09,00,55,16.40
2016,07,09,00,56,16.30
2016,07,09,00,57,16.30
2016,07,09,00,58,16.30
2016,07,09,00,59,16.30
2016,07,09,01,00,16.30
2016,07,09,01,01,16.20
2016,07,09,01,02,16.20
2016,07,09,01,03,16.20
2016,07,09,01,04,16.20
2016,07,09,01,05,16.20
2016,07,09,01,06,16.20
2016,07,09,01,07,16.10
2016,07,09,01,08,16.10
2016,07,09,01,09,16.20
2016,07,09,01,10,16.20
2016,07,09,01,11,16.10
2016,07,09,01,12,16.10
2016,07,09,01,13,16.10
2016,07,09,01,14,16.20
2016,07,09,01,15,16.20
2016,07,09,01,16,16.20
2016,07,09,01,17,16.20
2016,07,09,01,18,16.20
2016,07,09,01,19,16.30
2016,07,09,01,20,16.30
2016,07,09,01,21,16.30
2016,07,09,01,22,16.30
2016,07,09,01,23,16.30
2016,07,09,01,24,16.30
2016,07,09,01,25,16.30
2016,07,09,01,26,16.30
2016,07,09,01,27,16.30
2016,07,09,01,28,16.20
2016,07,09,01,29,16.30
2016,07,09,01,30,16.30
2016,07,09,01,31,16.30
2016,07,09,01,32,16.30
2016,07,09,01,33,16.20
2016,07,09,01,34,16.20
2016,07,09,01,35,16.20
2016,07,09,01,36,16.20
2016,07,09,01,37,16.20
2016,07,09,01,38,16.20
2016,07,09,01,39,16.20
2016,07,09,01,40,16.10
2016,07,09,01,41,16.10
2016,07,09,01,42,16.10
2016,07,09,01,43,16.10
2016,07,09,01,44,16.10
2016,07,09,01,45,16.10
2016,07,09,01,46,16.10
2016,07,09,01,47,16.00
2016,07,09,01,48,16.00
2016,07,09,01,49,16.00
2016,07,09,01,50,16.10
2016,07,09,01,51,16.10
2016,07,09,01,52,16.10
2016,07,09,01,53,16.10
2016,07,09,01,54,16.10
2016,07,09,01,55,16.10
2016,07,09,01,56,16.00
2016,07,09,01,57,15.90
2016,07,09,01,58,15.80
2016,07,09,01,59,15.80
2016,07,09,02,00,15.70
2016,07,09,02,01,15.60
2016,07,09,02,02,15.60
2016,07,09,02,03,15.50
2016,07,09,02,04,15.50
2016,07,09,02,05,15.40
2016,07,09,02,06,15.40
2016,07,09,02,07,15.30
2016,07,09,02,08,15.30
2016,07,09,02,09,15.20
2016,07,09,02,10,15.20
2016,07,09,02,11,15.20
2016,07,09,02,12,15.20
2016,07,09,02,13,15.10
2016,07,09,02,14,15.10
2016,07,09,02,15,15.00
2016,07,09,02,16,15.00
2016,07,09,02,17,15.00
2016,07,09,02,18,15.00
2016,07,09,02,19,15.00
2016,07,09,02,20,15.00
2016,07,09,02,21,15.00
2016,07,09,02,22,15.00
2016,07,09,02,23,15.00
2016,07,09,02,24,15.00
2016,07,09,02,25,15.00
2016,07,09,02,26,15.00
2016,07,09,02,27,15.00
2016,07,09,02,28,15.00
2016,07,09,02,29,15.00
2016,07,09,02,30,15.00
2016,07,09,02,31,15.00
2016,07,09,02,32,15.00
2016,07,09,02,33,15.00
2016,07,09,02,34,15.00
2016,07,09,02,35,15.00
2016,07,09,02,36,15.00
2016,07,09,02,37,15.00
2016,07,09,02,38,15.00
2016,07,09,02,39,15.00
2016,07,09,02,40,15.00
2016,07,09,02,41,15.00
2016,07,09,02,42,14.90
2016,07,09,02,43,14.90
2016,07,09,02,44,14.90
2016,07,09,02,45,14.90
2016,07,09,02,46,14.90
2016,07,09,02,47,14.80
2016,07,09,02,48,14.80
2016,07,09,02,49,14.80
2016,07,09,02,50,14.80
2016,07,09,02,51,14.80
2016,07,09,02,52,14.80
2016,07,09,02,53,14.80
2016,07,09,02,54,14.80
2016,07,09,02,55,14.80
2016,07,09,02,56,14.80
2016,07,09,02,57,14.80
2016,07,09,02,58,14.80
2016,07,09,02,59,14.80
2016,07,09,03,00,14.80
2016,07,09,03,01,14.80
2016,07,09,03,02,14.80
2016,07,09,03,03,14.80
2016,07,09,03,04,14.80
2016,07,09,03,05,14.80
2016,07,09,03,06,14.80
2016,07,09,03,07,14.80
2016,07,09,03,08,14.80
2016,07,09,03,09,14.80
2016,07,09,03,10,14.80
2016,07,09,03,11,14.80
2016,07,09,03,12,14.80
2016,07,09,03,13,14.80
2016,07,09,03,14,14.80
2016,07,09,03,15,14.80
2016,07,09,03,16,14.80
2016,07,09,03,17,14.70
2016,07,09,03,18,14.70
2016,07,09,03,19,14.70
2016,07,09,03,20,14.70
2016,07,09,03,21,14.70
2016,07,09,03,22,14.70
2016,07,09,03,23,14.70
2016,07,09,03,24,14.70
2016,07,09,03,25,14.70
2016,07,09,03,26,14.70
2016,07,09,03,27,14.70
2016,07,09,03,28,14.70
2016,07,09,03,29,14.70
2016,07,09,03,30,14.70
2016,07,09,03,31,14.70
2016,07,09,03,32,14.70
2016,07,09,03,33,14.70
2016,07,09,03,34,14.70
2016,07,09,03,35,14.70
2016,07,09,03,36,14.70
2016,07,09,03,37,14.70
2016,07,09,03,38,14.70
2016,07,09,03,39,14.70
2016,07,09,03,40,14.70
2016,07,09,03,41,14.70
2016,07,09,03,42,14.70
2016,07,09,03,43,14.70
2016,07,09,03,44,14.70
2016,07,09,03,45,14.70
2016,07,09,03,46,14.60
2016,07,09,03,47,14.60
2016,07,09,03,48,14.60
2016,07,09,03,49,14.60
2016,07,09,03,50,14.60
2016,07,09,03,51,14.60
2016,07,09,03,52,14.60
2016,07,09,03,53,14.60
2016,07,09,03,54,14.60
2016,07,09,03,55,14.60
2016,07,09,03,56,14.60
2016,07,09,03,57,14.60
2016,07,09,03,58,14.60
2016,07,09,03,59,14.60
2016,07,09,04,00,14.60
2016,07,09,04,01,14.60
2016,07,09,04,02,14.60
2016,07,09,04,03,14.60
2016,07,09,04,04,14.60
2016,07,09,04,05,14.60
2016,07,09,04,06,14.60
2016,07,09,04,07,14.60
2016,07,09,04,08,14.60
2016,07,09,04,09,14.60
2016,07,09,04,10,14.50
2016,07,09,04,11,14.50
2016,07,09,04,12,14.50
2016,07,09,04,13,14.50
2016,07,09,04,14,14.50
2016,07,09,04,15,14.40
2016,07,09,04,16,14.50
2016,07,09,04,17,14.50
2016,07,09,04,18,14.50
2016,07,09,04,19,14.50
2016,07,09,04,20,14.50
2016,07,09,04,21,14.50
2016,07,09,04,22,14.40
2016,07,09,04,23,14.40
2016,07,09,04,24,14.40
2016,07,09,04,25,14.40
2016,07,09,04,26,14.40
2016,07,09,04,27,14.40
2016,07,09,04,28,14.40
2016,07,09,04,29,14.40
2016,07,09,04,30,14.40
2016,07,09,04,31,14.40
2016,07,09,04,32,14.40
2016,07,09,04,33,14.40
2016,07,09,04,34,14.40
2016,07,09,04,35,14.40
2016,07,09,04,36,14.40
2016,07,09,04,37,14.40
2016,07,09,04,38,14.40
2016,07,09,04,39,14.40
2016,07,09,04,40,14.40
2016,07,09,04,41,14.40
2016,07,09,04,42,14.40
2016,07,09,04,43,14.40
2016,07,09,04,44,14.30
2016,07,09,04,45,14.30
2016,07,09,04,46,14.30
2016,07,09,04,47,14.30
2016,07,09,04,48,14.30
2016,07,09,04,49,14.30
2016,07,09,04,50,14.30
2016,07,09,04,51,14.30
2016,07,09,04,52,14.30
2016,07,09,04,53,14.30
2016,07,09,04,54,14.30
2016,07,09,04,55,14.30
2016,07,09,04,56,14.30
2016,07,09,04,57,14.30
2016,07,09,04,58,14.30
2016,07,09,04,59,14.30
2016,07,09,05,00,14.30
2016,07,09,05,01,14.30
2016,07,09,05,02,14.30
2016,07,09,05,03,14.30
2016,07,09,05,04,14.30
2016,07,09,05,05,14.30
2016,07,09,05,06,14.30
2016,07,09,05,07,14.30
2016,07,09,05,08,14.30
2016,07,09,05,09,14.30
2016,07,09,05,10,14.20
2016,07,09,05,11,14.20
2016,07,09,05,12,14.20
2016,07,09,05,13,14.20
2016,07,09,05,14,14.20
2016,07,09,05,15,14.30
2016,07,09,05,16,14.30
2016,07,09,05,17,14.20
2016,07,09,05,18,14.20
2016,07,09,05,19,14.20
2016,07,09,05,20,14.20
2016,07,09,05,21,14.20
2016,07,09,05,22,14.20
2016,07,09,05,23,14.20
2016,07,09,05,24,14.20
2016,07,09,05,25,14.20
2016,07,09,05,26,14.20
2016,07,09,05,27,14.20
2016,07,09,05,28,14.20
2016,07,09,05,29,14.20
2016,07,09,05,30,14.20
2016,07,09,05,31,14.20
2016,07,09,05,32,14.20
2016,07,09,05,33,14.20
2016,07,09,05,34,14.20
2016,07,09,05,35,14.20
2016,07,09,05,36,14.20
2016,07,09,05,37,14.20
2016,07,09,05,38,14.20
2016,07,09,05,39,14.20
2016,07,09,05,40,14.20
2016,07,09,05,41,14.20
2016,07,09,05,42,14.20
2016,07,09,05,43,14.20
2016,07,09,05,44,14.20
2016,07,09,05,45,14.20
2016,07,09,05,46,14.20
2016,07,09,05,47,14.20
2016,07,09,05,48,14.20
2016,07,09,05,49,14.20
2016,07,09,05,50,14.20
2016,07,09,05,51,14.10
2016,07,09,05,52,14.10
2016,07,09,05,53,14.10
2016,07,09,05,54,14.10
2016,07,09,05,55,14.10
2016,07,09,05,56,14.10
2016,07,09,05,57,14.10
2016,07,09,05,58,14.10
2016,07,09,05,59,14.10
2016,07,09,06,00,14.10
2016,07,09,06,01,14.10
2016,07,09,06,02,14.10
2016,07,09,06,03,14.10
2016,07,09,06,04,14.10
2016,07,09,06,05,14.10
2016,07,09,06,06,14.10
2016,07,09,06,07,14.10
2016,07,09,06,08,14.10
2016,07,09,06,09,14.10
2016,07,09,06,10,14.10
2016,07,09,06,11,14.10
2016,07,09,06,12,14.10
2016,07,09,06,13,14.10
2016,07,09,06,14,14.10
2016,07,09,06,15,14.10
2016,07,09,06,16,14.10
2016,07,09,06,17,14.10
2016,07,09,06,18,14.10
2016,07,09,06,19,14.10
2016,07,09,06,20,14.10
2016,07,09,06,21,14.10
2016,07,09,06,22,14.00
2016,07,09,06,23,14.00
2016,07,09,06,24,14.00
2016,07,09,06,25,14.00
2016,07,09,06,26,14.00
2016,07,09,06,27,14.00
2016,07,09,06,28,14.00
2016,07,09,06,29,14.00
2016,07,09,06,30,14.00
2016,07,09,06,31,14.00
2016,07,09,06,32,14.00
2016,07,09,06,33,14.00
2016,07,09,06,34,14.00
2016,07,09,06,35,14.00
2016,07,09,06,36,14.00
2016,07,09,06,37,14.00
2016,07,09,06,38,14.00
2016,07,09,06,39,14.00
2016,07,09,06,40,14.00
2016,07,09,06,41,14.00
2016,07,09,06,42,14.00
2016,07,09,06,43,14.00
2016,07,09,06,44,14.00
2016,07,09,06,45,14.00
2016,07,09,06,46,14.00
2016,07,09,06,47,14.00
2016,07,09,06,48,14.00
2016,07,09,06,49,14.00
2016,07,09,06,50,14.00
2016,07,09,06,51,14.00
2016,07,09,06,52,14.00
2016,07,09,06,53,14.00
2016,07,09,06,54,14.00
2016,07,09,06,55,14.00
2016,07,09,06,56,14.00
2016,07,09,06,57,14.00
2016,07,09,06,58,14.00
2016,07,09,06,59,14.00
2016,07,09,07,00,14.00
2016,07,09,07,01,14.00
2016,07,09,07,02,14.00
2016,07,09,07,03,14.00
2016,07,09,07,04,14.00
2016,07,09,07,05,14.00
2016,07,09,07,06,14.00
2016,07,09,07,07,14.00
2016,07,09,07,08,14.00
2016,07,09,07,09,14.00
2016,07,09,07,10,14.00
2016,07,09,07,11,14.00
2016,07,09,07,12,14.00
2016,07,09,07,13,14.00
2016,07,09,07,14,14.00
2016,07,09,07,15,14.00
2016,07,09,07,16,14.00
2016,07,09,07,17,14.00
2016,07,09,07,18,14.00
2016,07,09,07,19,14.00
2016,07,09,07,20,14.00
2016,07,09,07,21,14.00
2016,07,09,07,22,14.00
2016,07,09,07,23,14.00
2016,07,09,07,24,13.90
2016,07,09,07,25,13.90
2016,07,09,07,26,13.90
2016,07,09,07,27,13.90
2016,07,09,07,28,13.90
2016,07,09,07,29,13.90
2016,07,09,07,30,13.90
2016,07,09,07,31,13.90
2016,07,09,07,32,13.90
2016,07,09,07,33,13.90
2016,07,09,07,34,13.90
2016,07,09,07,35,13.90
2016,07,09,07,36,13.90
2016,07,09,07,37,13.90
2016,07,09,07,38,13.90
2016,07,09,07,39,13.90
2016,07,09,07,40,13.90
2016,07,09,07,41,13.90
2016,07,09,07,42,13.90
2016,07,09,07,43,13.90
2016,07,09,07,44,13.90
2016,07,09,07,45,14.00
2016,07,09,07,46,14.00
2016,07,09,07,47,14.00
2016,07,09,07,48,14.10
2016,07,09,07,49,14.10
2016,07,09,07,50,14.10
2016,07,09,07,51,14.10
2016,07,09,07,52,14.10
2016,07,09,07,53,14.10
2016,07,09,07,54,14.10
2016,07,09,07,55,14.10
2016,07,09,07,56,14.10
2016,07,09,07,57,14.10
2016,07,09,07,58,14.10
2016,07,09,07,59,14.10
2016,07,09,08,00,14.10
2016,07,09,08,01,14.10
2016,07,09,08,02,14.20
2016,07,09,08,03,14.20
2016,07,09,08,04,14.20
2016,07,09,08,05,14.20
2016,07,09,08,06,14.20
2016,07,09,08,07,14.20
2016,07,09,08,08,14.20
2016,07,09,08,09,14.20
2016,07,09,08,10,14.30
2016,07,09,08,11,14.30
2016,07,09,08,12,14.30
2016,07,09,08,13,14.30
2016,07,09,08,14,14.30
2016,07,09,08,15,14.40
2016,07,09,08,16,14.40
2016,07,09,08,17,14.40
2016,07,09,08,18,14.50
2016,07,09,08,19,14.60
2016,07,09,08,20,14.60
2016,07,09,08,21,14.60
2016,07,09,08,22,14.70
2016,07,09,08,23,14.70
2016,07,09,08,24,14.80
2016,07,09,08,25,14.80
2016,07,09,08,26,14.80
2016,07,09,08,27,14.90
2016,07,09,08,28,15.00
2016,07,09,08,29,15.00
2016,07,09,08,30,15.00
2016,07,09,08,31,15.00
2016,07,09,08,32,15.00
2016,07,09,08,33,15.00
2016,07,09,08,34,15.00
2016,07,09,08,35,15.00
2016,07,09,08,36,15.00
2016,07,09,08,37,15.00
2016,07,09,08,38,15.00
2016,07,09,08,39,15.00
2016,07,09,08,40,15.00
2016,07,09,08,41,15.00
2016,07,09,08,42,15.00
2016,07,09,08,43,15.00
2016,07,09,08,44,15.00
2016,07,09,08,45,15.00
2016,07,09,08,46,15.00
2016,07,09,08,47,15.10
2016,07,09,08,48,15.10
2016,07,09,08,49,15.10
2016,07,09,08,50,15.10
2016,07,09,08,51,15.20
2016,07,09,08,52,15.20
2016,07,09,08,53,15.20
2016,07,09,08,54,15.20
2016,07,09,08,55,15.20
2016,07,09,08,56,15.20
2016,07,09,08,57,15.30
2016,07,09,08,58,15.30
2016,07,09,08,59,15.30
2016,07,09,09,00,15.20
2016,07,09,09,01,15.20
2016,07,09,09,02,15.20
2016,07,09,09,03,15.20
2016,07,09,09,04,15.20
2016,07,09,09,05,15.30
2016,07,09,09,06,15.30
2016,07,09,09,07,15.30
2016,07,09,09,08,15.30
2016,07,09,09,09,15.30
2016,07,09,09,10,15.30
2016,07,09,09,11,15.40
2016,07,09,09,12,15.40
2016,07,09,09,13,15.40
2016,07,09,09,14,15.40
2016,07,09,09,15,15.50
2016,07,09,09,16,15.50
2016,07,09,09,17,15.60
2016,07,09,09,18,15.70
2016,07,09,09,19,15.70
2016,07,09,09,20,15.70
2016,07,09,09,21,15.70
2016,07,09,09,22,15.70
2016,07,09,09,23,15.70
2016,07,09,09,24,15.80
2016,07,09,09,25,15.80
2016,07,09,09,26,15.70
2016,07,09,09,27,15.80
2016,07,09,09,28,15.80
2016,07,09,09,29,15.90
2016,07,09,09,30,15.90
2016,07,09,09,31,15.90
2016,07,09,09,32,15.90
2016,07,09,09,33,15.90
2016,07,09,09,34,15.90
2016,07,09,09,35,15.90
2016,07,09,09,36,15.80
2016,07,09,09,37,15.80
2016,07,09,09,38,15.80
2016,07,09,09,39,15.80
2016,07,09,09,40,15.80
2016,07,09,09,41,15.80
2016,07,09,09,42,15.80
2016,07,09,09,43,15.80
2016,07,09,09,44,15.90
2016,07,09,09,45,15.90
2016,07,09,09,46,16.00
2016,07,09,09,47,16.00
2016,07,09,09,48,16.00
2016,07,09,09,49,16.00
2016,07,09,09,50,16.00
2016,07,09,09,51,16.10
2016,07,09,09,52,16.10
2016,07,09,09,53,16.10
2016,07,09,09,54,16.10
2016,07,09,09,55,16.10
2016,07,09,09,56,16.10
2016,07,09,09,57,16.10
2016,07,09,09,58,16.10
2016,07,09,09,59,16.20
2016,07,09,10,00,16.20
2016,07,09,10,01,16.20
2016,07,09,10,02,16.20
2016,07,09,10,03,16.20
2016,07,09,10,04,16.20
2016,07,09,10,05,16.30
2016,07,09,10,06,16.30
2016,07,09,10,07,16.30
2016,07,09,10,08,16.30
2016,07,09,10,09,16.30
2016,07,09,10,10,16.30
2016,07,09,10,11,16.30
2016,07,09,10,12,16.30
2016,07,09,10,13,16.30
2016,07,09,10,14,16.30
2016,07,09,10,15,16.30
2016,07,09,10,16,16.40
2016,07,09,10,17,16.40
2016,07,09,10,18,16.40
2016,07,09,10,19,16.30
2016,07,09,10,20,16.40
2016,07,09,10,21,16.40
2016,07,09,10,22,16.40
2016,07,09,10,23,16.40
2016,07,09,10,24,16.40
2016,07,09,10,25,16.50
2016,07,09,10,26,16.50
2016,07,09,10,27,16.50
2016,07,09,10,28,16.50
2016,07,09,10,29,16.50
2016,07,09,10,30,16.50
2016,07,09,10,31,16.60
2016,07,09,10,32,16.60
2016,07,09,10,33,16.60
2016,07,09,10,34,16.60
2016,07,09,10,35,16.60
2016,07,09,10,36,16.60
2016,07,09,10,37,16.60
2016,07,09,10,38,16.70
2016,07,09,10,39,16.70
2016,07,09,10,40,16.70
2016,07,09,10,41,16.70
2016,07,09,10,42,16.70
2016,07,09,10,43,16.60
2016,07,09,10,44,16.60
2016,07,09,10,45,16.60
2016,07,09,10,46,16.50
2016,07,09,10,47,16.50
2016,07,09,10,48,16.50
2016,07,09,10,49,16.50
2016,07,09,10,50,16.50
2016,07,09,10,51,16.50
2016,07,09,10,52,16.50
2016,07,09,10,53,16.50
2016,07,09,10,54,16.60
2016,07,09,10,55,16.60
2016,07,09,10,56,16.60
2016,07,09,10,57,16.70
2016,07,09,10,58,16.80
2016,07,09,10,59,16.80
2016,07,09,11,00,16.80
2016,07,09,11,01,16.80
2016,07,09,11,02,16.80
2016,07,09,11,03,16.80
2016,07,09,11,04,16.80
2016,07,09,11,05,16.80
2016,07,09,11,06,16.90
2016,07,09,11,07,16.90
2016,07,09,11,08,16.90
2016,07,09,11,09,16.90
2016,07,09,11,10,17.00
2016,07,09,11,11,17.00
2016,07,09,11,12,17.10
2016,07,09,11,13,17.10
2016,07,09,11,14,17.20
2016,07,09,11,15,17.20
2016,07,09,11,16,17.20
2016,07,09,11,17,17.30
2016,07,09,11,18,17.20
2016,07,09,11,19,17.20
2016,07,09,11,20,17.20
2016,07,09,11,21,17.10
2016,07,09,11,22,17.20
2016,07,09,11,23,17.20
2016,07,09,11,24,17.20
2016,07,09,11,25,17.30
2016,07,09,11,26,17.30
2016,07,09,11,27,17.40
2016,07,09,11,28,17.40
2016,07,09,11,29,17.40
2016,07,09,11,30,17.40
2016,07,09,11,31,17.30
2016,07,09,11,32,17.30
2016,07,09,11,33,17.30
2016,07,09,11,34,17.30
2016,07,09,11,35,17.30
2016,07,09,11,36,17.30
2016,07,09,11,37,17.30
2016,07,09,11,38,17.40
2016,07,09,11,39,17.40
2016,07,09,11,40,17.40
2016,07,09,11,41,17.30
2016,07,09,11,42,17.30
2016,07,09,11,43,17.30
2016,07,09,11,44,17.40
2016,07,09,11,45,17.40
2016,07,09,11,46,17.40
2016,07,09,11,47,17.50
2016,07,09,11,48,17.60
2016,07,09,11,49,17.60
2016,07,09,11,50,17.60
2016,07,09,11,51,17.70
2016,07,09,11,52,17.70
2016,07,09,11,53,17.70
2016,07,09,11,54,17.70
2016,07,09,11,55,17.70
2016,07,09,11,56,17.80
2016,07,09,11,57,17.90
2016,07,09,11,58,17.90
2016,07,09,11,59,18.00
2016,07,09,12,00,18.10
2016,07,09,12,01,18.10
2016,07,09,12,02,18.00
2016,07,09,12,03,17.90
2016,07,09,12,04,17.90
2016,07,09,12,05,18.00
2016,07,09,12,06,18.10
2016,07,09,12,07,18.20
2016,07,09,12,08,18.30
2016,07,09,12,09,18.30
2016,07,09,12,10,18.30
2016,07,09,12,11,18.30
2016,07,09,12,12,18.30
2016,07,09,12,13,18.30
2016,07,09,12,14,18.30
2016,07,09,12,15,18.30
2016,07,09,12,16,18.30
2016,07,09,12,17,18.40
2016,07,09,12,18,18.40
2016,07,09,12,19,18.50
2016,07,09,12,20,18.50
2016,07,09,12,21,18.50
2016,07,09,12,22,18.60
2016,07,09,12,23,18.50
2016,07,09,12,24,18.40
2016,07,09,12,25,18.40
2016,07,09,12,26,18.40
2016,07,09,12,27,18.40
2016,07,09,12,28,18.40
2016,07,09,12,29,18.50
2016,07,09,12,30,18.60
2016,07,09,12,31,18.70
2016,07,09,12,32,18.80
2016,07,09,12,33,18.90
2016,07,09,12,34,18.90
2016,07,09,12,35,18.90
2016,07,09,12,36,18.80
2016,07,09,12,37,18.70
2016,07,09,12,38,18.80
2016,07,09,12,39,18.80
2016,07,09,12,40,18.80
2016,07,09,12,41,18.80
2016,07,09,12,42,18.80
2016,07,09,12,43,18.70
2016,07,09,12,44,18.60
2016,07,09,12,45,18.60
2016,07,09,12,46,18.60
2016,07,09,12,47,18.60
2016,07,09,12,48,18.60
2016,07,09,12,49,18.50
2016,07,09,12,50,18.40
2016,07,09,12,51,18.40
2016,07,09,12,52,18.40
2016,07,09,12,53,18.40
2016,07,09,12,54,18.40
2016,07,09,12,55,18.50
2016,07,09,12,56,18.50
2016,07,09,12,57,18.60
2016,07,09,12,58,18.60
2016,07,09,12,59,18.60
2016,07,09,13,00,18.50
2016,07,09,13,01,18.50
2016,07,09,13,02,18.50
2016,07,09,13,03,18.50
2016,07,09,13,04,18.50
2016,07,09,13,05,18.60
2016,07,09,13,06,18.60
2016,07,09,13,07,18.50
2016,07,09,13,08,18.50
2016,07,09,13,09,18.40
2016,07,09,13,10,18.40
2016,07,09,13,11,18.40
2016,07,09,13,12,18.40
2016,07,09,13,13,18.50
2016,07,09,13,14,18.50
2016,07,09,13,15,18.50
2016,07,09,13,16,18.50
2016,07,09,13,17,18.60
2016,07,09,13,18,18.70
2016,07,09,13,19,18.70
2016,07,09,13,20,18.80
2016,07,09,13,21,18.80
2016,07,09,13,22,18.80
2016,07,09,13,23,18.80
2016,07,09,13,24,18.80
2016,07,09,13,25,18.90
2016,07,09,13,26,18.90
2016,07,09,13,27,18.90
2016,07,09,13,28,18.90
2016,07,09,13,29,18.90
2016,07,09,13,30,18.90
2016,07,09,13,31,18.90
2016,07,09,13,32,18.80
2016,07,09,13,33,18.90
2016,07,09,13,34,18.90
2016,07,09,13,35,19.00
2016,07,09,13,36,19.10
2016,07,09,13,37,19.20
2016,07,09,13,38,19.40
2016,07,09,13,39,19.50
2016,07,09,13,40,19.60
2016,07,09,13,41,19.50
2016,07,09,13,42,19.50
2016,07,09,13,43,19.40
2016,07,09,13,44,19.30
2016,07,09,13,45,19.30
2016,07,09,13,46,19.20
2016,07,09,13,47,19.20
2016,07,09,13,48,19.30
2016,07,09,13,49,19.30
2016,07,09,13,50,19.30
2016,07,09,13,51,19.30
2016,07,09,13,52,19.30
2016,07,09,13,53,19.40
2016,07,09,13,54,19.50
2016,07,09,13,55,19.60
2016,07,09,13,56,19.70
2016,07,09,13,57,19.80
2016,07,09,13,58,20.00
2016,07,09,13,59,20.10
2016,07,09,14,00,20.10
2016,07,09,14,01,20.10
2016,07,09,14,02,20.00
2016,07,09,14,03,19.80
2016,07,09,14,04,19.70
2016,07,09,14,05,19.50
2016,07,09,14,06,19.40
2016,07,09,14,07,19.40
2016,07,09,14,08,19.40
2016,07,09,14,09,19.40
2016,07,09,14,10,19.40
2016,07,09,14,11,19.50
2016,07,09,14,12,19.50
2016,07,09,14,13,19.60
2016,07,09,14,14,19.70
2016,07,09,14,15,19.70
2016,07,09,14,16,19.80
2016,07,09,14,17,19.80
2016,07,09,14,18,19.70
2016,07,09,14,19,19.70
2016,07,09,14,20,19.60
2016,07,09,14,21,19.50
2016,07,09,14,22,19.40
2016,07,09,14,23,19.40
2016,07,09,14,24,19.30
2016,07,09,14,25,19.20
2016,07,09,14,26,19.20
2016,07,09,14,27,19.20
2016,07,09,14,28,19.30
2016,07,09,14,29,19.30
2016,07,09,14,30,19.40
2016,07,09,14,31,19.50
2016,07,09,14,32,19.60
2016,07,09,14,33,19.60
2016,07,09,14,34,19.60
2016,07,09,14,35,19.60
2016,07,09,14,36,19.60
2016,07,09,14,37,19.50
2016,07,09,14,38,19.50
2016,07,09,14,39,19.40
2016,07,09,14,40,19.40
2016,07,09,14,41,19.30
2016,07,09,14,42,19.20
2016,07,09,14,43,19.20
2016,07,09,14,44,19.20
2016,07,09,14,45,19.20
2016,07,09,14,46,19.20
2016,07,09,14,47,19.20
2016,07,09,14,48,19.30
2016,07,09,14,49,19.30
2016,07,09,14,50,19.30
2016,07,09,14,51,19.30
2016,07,09,14,52,19.40
2016,07,09,14,53,19.40
2016,07,09,14,54,19.50
2016,07,09,14,55,19.50
2016,07,09,14,56,19.50
2016,07,09,14,57,19.50
2016,07,09,14,58,19.60
2016,07,09,14,59,19.60
2016,07,09,15,00,19.60
2016,07,09,15,01,19.50
2016,07,09,15,02,19.50
2016,07,09,15,03,19.50
2016,07,09,15,04,19.50
2016,07,09,15,05,19.50
2016,07,09,15,06,19.50
2016,07,09,15,07,19.50
2016,07,09,15,08,19.50
2016,07,09,15,09,19.60
2016,07,09,15,10,19.60
2016,07,09,15,11,19.60
2016,07,09,15,12,19.60
2016,07,09,15,13,19.60
2016,07,09,15,14,19.60
2016,07,09,15,15,19.60
2016,07,09,15,16,19.60
2016,07,09,15,17,19.60
2016,07,09,15,18,19.60
2016,07,09,15,19,19.60
2016,07,09,15,20,19.60
2016,07,09,15,21,19.60
2016,07,09,15,22,19.60
2016,07,09,15,23,19.70
2016,07,09,15,24,19.70
2016,07,09,15,25,19.60
2016,07,09,15,26,19.60
2016,07,09,15,27,19.70
2016,07,09,15,28,19.70
2016,07,09,15,29,19.60
2016,07,09,15,30,19.60
2016,07,09,15,31,19.60
2016,07,09,15,32,19.60
2016,07,09,15,33,19.50
2016,07,09,15,34,19.40
2016,07,09,15,35,19.40
2016,07,09,15,36,19.40
2016,07,09,15,37,19.40
2016,07,09,15,38,19.40
2016,07,09,15,39,19.50
2016,07,09,15,40,19.50
2016,07,09,15,41,19.50
2016,07,09,15,42,19.50
2016,07,09,15,43,19.60
2016,07,09,15,44,19.60
2016,07,09,15,45,19.60
2016,07,09,15,46,19.60
2016,07,09,15,47,19.60
2016,07,09,15,48,19.60
2016,07,09,15,49,19.70
2016,07,09,15,50,19.70
2016,07,09,15,51,19.70
2016,07,09,15,52,19.70
2016,07,09,15,53,19.70
2016,07,09,15,54,19.70
2016,07,09,15,55,19.60
2016,07,09,15,56,19.60
2016,07,09,15,57,19.60
2016,07,09,15,58,19.60
2016,07,09,15,59,19.60
2016,07,09,16,00,19.60
2016,07,09,16,01,19.50
2016,07,09,16,02,19.50
2016,07,09,16,03,19.40
2016,07,09,16,04,19.40
2016,07,09,16,05,19.40
2016,07,09,16,06,19.40
2016,07,09,16,07,19.40
2016,07,09,16,08,19.40
2016,07,09,16,09,19.40
2016,07,09,16,10,19.30
2016,07,09,16,11,19.30
2016,07,09,16,12,19.30
2016,07,09,16,13,19.30
2016,07,09,16,14,19.30
2016,07,09,16,15,19.30
2016,07,09,16,16,19.30
2016,07,09,16,17,19.30
2016,07,09,16,18,19.30
2016,07,09,16,19,19.30
2016,07,09,16,20,19.30
2016,07,09,16,21,19.30
2016,07,09,16,22,19.30
2016,07,09,16,23,19.30
2016,07,09,16,24,19.40
2016,07,09,16,25,19.40
2016,07,09,16,26,19.50
2016,07,09,16,27,19.50
2016,07,09,16,28,19.60
2016,07,09,16,29,19.60
2016,07,09,16,30,19.50
2016,07,09,16,31,19.50
2016,07,09,16,32,19.40
2016,07,09,16,33,19.40
2016,07,09,16,34,19.40
2016,07,09,16,35,19.30
2016,07,09,16,36,19.20
2016,07,09,16,37,19.10
2016,07,09,16,38,19.10
2016,07,09,16,39,19.00
2016,07,09,16,40,18.90
2016,07,09,16,41,18.90
2016,07,09,16,42,18.80
2016,07,09,16,43,18.80
2016,07,09,16,44,18.80
2016,07,09,16,45,18.70
2016,07,09,16,46,18.70
2016,07,09,16,47,18.70
2016,07,09,16,48,18.70
2016,07,09,16,49,18.60
2016,07,09,16,50,18.60
2016,07,09,16,51,18.50
2016,07,09,16,52,18.30
2016,07,09,16,53,18.20
2016,07,09,16,54,18.10
2016,07,09,16,55,18.00
2016,07,09,16,56,17.90
2016,07,09,16,57,17.90
2016,07,09,16,58,17.80
2016,07,09,16,59,17.80
2016,07,09,17,00,17.70
2016,07,09,17,01,17.70
2016,07,09,17,02,17.70
2016,07,09,17,03,17.70
2016,07,09,17,04,17.70
2016,07,09,17,05,17.70
2016,07,09,17,06,17.70
2016,07,09,17,07,17.70
2016,07,09,17,08,17.70
2016,07,09,17,09,17.70
2016,07,09,17,10,17.70
2016,07,09,17,11,17.70
2016,07,09,17,12,17.70
2016,07,09,17,13,17.70
2016,07,09,17,14,17.70
2016,07,09,17,15,17.70
2016,07,09,17,16,17.70
2016,07,09,17,17,17.80
2016,07,09,17,18,17.80
2016,07,09,17,19,17.80